AirNav   Phillips 66 Aviation Fuel
 
 414 users online  

7N0 New Orleans Downtown Heliport
New Orleans, Louisiana, USA

GOING TO NEW ORLEANS?


FAA INFORMATION EFFECTIVE 16 AUGUST 2018

Location

FAA Identifier: 7N0
Lat/Long: 29-57-09.6600N / 090-04-57.8400W
29-57.161000N / 090-04.964000W
29.9526833 / -90.0827333
(estimated)
Elevation: 30 ft. / 9 m (estimated)
Variation: 02E (1995)
Time zone: UTC -5 (UTC -6 during Standard Time)
Zip code: 70112

Heliport Operations

Heliport use: Open to the public
Activation date: 01/1997
Control tower: no
ARTCC: HOUSTON CENTER
FSS: DE RIDDER FLIGHT SERVICE STATION
NOTAMs facility: DRI (NOTAM-D service available)
Attendance: 
Wind indicator: lighted
Segmented circle: no
Lights: SS-SR
Beacon: white-green-yellow (heliport)
Operates sunset to sunrise.
Landing fee: yes

Heliport Communications

CTAF/UNICOM: 123.05
WX AWOS-3PT: 133.10 (504-525-1711)
WX ASOS at NEW (6 nm NE): PHONE 504-245-4366
WX ASOS at MSY (9 nm W): PHONE (504)471-4486

Nearby radio navigation aids

VOR radial/distance  VOR name  Freq  Var
HRVr324/7.4HARVEY VORTAC114.1002E
RQRr105/27.5RESERVE VOR/DME110.8002E
HMUr153/(38.2)HAMMOND VOR109.6000E

Heliport Services

Runway Information

Helipad H1

Dimensions: 40 x 40 ft. / 12 x 12 m
Surface: concrete, in good condition
Runway edge lights: APPROACH LIGHTING NON-STANDARD
Runway edge markings: HELIPAD MKD WITH REFLECTIVE PAINT.
Operational restrictions: ROOFTOP OF PARKING GARAGE.
Traffic pattern: leftleft
Markings: NSTD, in good condition

Heliport Ownership and Management from official FAA records

Ownership: Publicly-owned
Owner: CITY OF NEW ORLEANS
PO BOX 20007
NEW ORLEANS, LA 70141
Phone 504-303-7700
NEW ORLEANS AVIATION BOARD.
Manager: IFTIKHAR AHMAD
NEW ORLEANS DOWNTOWN HELIPORT, C/O LOUISIANA SUPERDOME
NEW ORLEANS, LA 70112
Phone (504) 303-7522
PHONE LOCATED AT HELIPORT.

Heliport Operational Statistics

Aircraft operations: avg 56/week *
69% transient general aviation
31% military
* for 12-month period ending 19 July 2016

Additional Remarks

A52-H1 200 FT LGTD TWR 1000 FT SSW, 500 FT BLDGS 700 FT ENE, 350 FT BLDG 375 FT SE & 1100 FT S OF HELIPAD.
RY H1 INGRESS 210 DEGS FOR WEST APCH; 070 DEGS FOR EAST APCH.
FOR CD CTC MSY APCH AT 504-471-4350.
HELIPORT UNATTENDED PERMANENTLY

Instrument Procedures

There are no published instrument procedures at 7N0.

Some nearby airports with instrument procedures:

KNEW - Lakefront Airport (6 nm NE)
KNBG - New Orleans Naval Air Station Joint Reserve Base//Alvin Callender Field (8 nm S)
KMSY - Louis Armstrong New Orleans International Airport (9 nm W)
KAPS - Port of South Louisiana Executive Regional Airport (27 nm W)
KASD - Slidell Airport (27 nm NE)
 
Loc | Ops | Rwys | IFR | FBO | Links
Com | Nav | Svcs | Stats | Notes


 
Area around 7N0 (New Orleans Downtown Heliport)
 
Road maps at: MapQuest Bing Google
 
Aerial photo
WARNING: Photo may not be current or correct
Aerial photo of 7N0 (New Orleans Downtown Heliport)
Photo by Malen Eyerly
Photo taken 31-Dec-2008

Do you have a better or more recent aerial photo of New Orleans Downtown Heliport that you would like to share? If so, please send us your photo.

 
Sectional chart

 
Airport distance calculator
Flying to New Orleans Downtown Heliport? Find the distance to fly.

From to 7N0

Sunrise and sunset
Times for 20-Aug-2018
 Local
(UTC-5)
 Zulu
(UTC)
Morning civil twilight06:0711:07
Sunrise06:3211:32
Sunset19:3600:36
Evening civil twilight20:0101:01

Current date and time
Zulu (UTC)  20-Aug-2018 09:54:43
Local (UTC-5)  20-Aug-2018 04:54:43
 
METAR
K7N0 200856Z AUTO 17003KT 10SM CLR 27/25 A3001 RMK AO2 SLP160 T02720250 55001
KNEW 
6nm NE 
200853Z AUTO 19005KT 10SM CLR 27/24 A3000 RMK AO2 SLP151 T02670244 55002 $
KNBG 
9nm SE 
200855Z AUTO 00000KT 10SM CLR 26/26 A2999 RMK AO2 SLP155 T02560256 56003 PWINO $
KMSY 
9nm W 
200853Z 19004KT 10SM FEW030 SCT200 27/26 A2999 RMK AO2 SLP159 T02670261 55002 $
TAF
KNEW 
6nm NE 
200520Z 2006/2106 17007KT P6SM SKC FM200900 17005KT P6SM VCTS SCT025CB BKN040 FM201500 22007KT P6SM SCT025 BKN100 PROB30 2015/2018 4SM -TSRA BKN025CB BKN030 FM201800 19006KT P6SM -SHRA VCTS SCT035CB OVC090 FM210000 19007KT P6SM BKN110
KNBG 
9nm SE 
2007/2107 17005KT 9999 FEW010 SCT250 QNH2990INS BECMG 2013/2015 20006KT 9999 VCTS SCT020CB BKN250 QNH2997INS TEMPO 2015/2021 VRB15G25KT 1600 +TSRA BKN020CB BECMG 2021/2023 26008KT 9999 NSW SCT250 QNH3002INS T25/2007Z T34/2020Z FN00182
KMSY 
9nm W 
200520Z 2006/2112 17005KT P6SM BKN220 FM200900 17004KT P6SM VCTS BKN020CB BKN040 FM201500 22007KT P6SM SCT035 BKN100 PROB30 2015/2018 4SM -TSRA BKN035CB FM201800 20007KT P6SM -SHRA VCTS SCT035CB OVC090 FM210000 19006KT P6SM BKN110
NOTAMs
Click for the latest NOTAMs
NOTAMs are issued by the DoD/FAA and will open in a separate window not controlled by AirNav.

 

 
 

Would you like to see your business listed on this page?

 If your business provides an interesting product or service to pilots, flight crews, aircraft, or users of the New Orleans Downtown Heliport, you should consider listing it here.  To start the listing process, click on the button below
 
Add a business
 

Other Pages about New Orleans Downtown Heliport

Update a link
 
Copyright © AirNav, LLC. All rights reserved. Privacy Policy  Contact